This demonstration page uses our WeatherBlox Daily Observations layout. Learn more.

Left ArrowRight Arrow

31.84235, -102.49876

Hourly Observations for August 29, 2015

Temp ( °F °C ) Dew Point ( °F °C ) Humidity (%) Winds ( mph kmh ) Pressure ( in mb ) Visibility ( mi km ) Precip ( " mm )
12:53 am 00:53 Mostly Cloudy 82 27.8 53 11.7 37 37 ENE 5 7 29.91 1013 10 16 0.00 0.00
1:53 am 01:53 Cloudy 79 26.1 57 13.9 47 47 NNW 12 19 29.95 1014 10 16 0.00 0.03
2:53 am 02:53 Cloudy 77 25 59 15 54 54 NNE 6 9 29.97 1015 10 16 0.00 0.00
3:53 am 03:53 Mostly Cloudy 77 25 58 14.4 52 52 N 8 13 29.95 1014 10 16 0.00 0.03
4:53 am 04:53 Cloudy 75 23.9 59 15 58 58 Calm 29.96 1015 10 16 0.00 0.00
5:53 am 05:53 Cloudy 75 23.9 59 15 58 58 Calm 29.95 1014 10 16 0.00 0.00
6:53 am 06:53 Cloudy with Light Rain 74 23.3 60 15.6 62 62 ENE 6 9 29.95 1014 10 16 0.00 0.03
7:53 am 07:53 Cloudy with Light Rain 70 21.1 62 16.7 76 76 NNE 9 15 30.00 1016 8 13 0.00 0.03
8:53 am 08:53 Cloudy 72 22.2 62 16.7 71 71 NNE 12 19 30.01 1016 10 16 0.00 0.03
9:53 am 09:53 Cloudy 73 22.8 62 16.7 69 69 NNE 12 19 30.04 1017 10 16 0.00 0.00
10:53 am 10:53 Cloudy with Light Rain 74 23.3 61 16.1 64 64 N 14 22 30.04 1017 10 16 0.00 0.03
11:53 am 11:53 Cloudy 75 23.9 61 16.1 62 62 NNE 12 19 30.04 1017 10 16 0.00 0.03
12:53 pm 12:53 Cloudy 76 24.4 60 15.6 58 58 NNE 3 6 30.05 1018 10 16 0.00 0.00
1:53 pm 13:53 Mostly Cloudy 79 26.1 53 11.7 41 41 ENE 15 24 30.02 1017 10 16 0.00 0.03
2:53 pm 14:53 Mostly Cloudy 83 28.3 48 8.9 30 30 SE 7 11 30.01 1016 10 16 0.00 0.00
3:53 pm 15:53 Mostly Cloudy 82 27.8 50 10 33 33 SSE 8 13 29.99 1016 10 16 0.00 0.00
4:53 pm 16:53 Mostly Cloudy 81 27.2 56 13.3 42 42 ESE 12 19 29.98 1015 10 16 0.00 0.00
5:53 pm 17:53 Cloudy 80 26.7 56 13.3 44 44 ESE 9 15 29.96 1014 10 16 0.00 0.00
6:53 pm 18:53 Cloudy 80 26.7 57 13.9 45 45 E 8 13 29.96 1014 10 16 0.00 0.00
7:53 pm 19:53 Cloudy 80 26.7 56 13.3 44 44 ESE 6 9 29.97 1015 10 16 0.00 0.00
8:53 pm 20:53 Cloudy 77 25 57 13.9 50 50 ESE 5 7 29.97 1015 10 16 0.00 0.00
9:53 pm 21:53 Mostly Clear 72 22.2 57 13.9 59 59 E 3 6 29.99 1016 10 16 0.00 0.00
10:53 pm 22:53 Clear 71 21.7 57 13.9 61 61 SE 5 7 30.01 1016 10 16 0.00 0.00
11:53 pm 23:53 Clear 69 20.6 58 14.4 68 68 E 6 9 30.01 1016 10 16 0.00 0.00

Powered by AerisWeather